Вернуться в каталог

ATLAS 35F R/B

АктивенHEO
NORAD 11705·ROCKET BODY·🇺🇸 United States

Запущен Feb 9, 1980 с Vandenberg Space Force Base

Loading…

Ближайшие Пролёты (ближайшие 24 часа)

TLE

СвежийSource: Space-Track

Эпоха: Sep 9, 2026, 02:01 UTC

1 11705U 80011B   26252.08435138  .00000008  00000-0  00000-0 0  9991
2 11705  64.3894 143.9020 4796194 251.2781  52.2860  4.97662631843467

Отслеживайте ATLAS 35F R/B в реальном времени с AllMySat

Download on the App Store